Regional Weather Roundup
Issued by NWS

Home | Current Version | Previous Version | Text Only | Print | Product List | Glossary Off
Versions: 1 2 3 4 5 6 7 8 9 10 11 12 13 14 15 16 17 18 19 20 21 22 23 24 25 26 27 28 29 30 31 32 33 34 35 36 37 38 39 40 41 42 43 44 45 46 47 48 49 50

000
ASUS43 KOAX 201602
RWRNE

WEATHER ROUNDUP FOR NEBRASKA
NATIONAL WEATHER SERVICE OMAHA NE
1000 AM CST SAT DEC 20 2014

NOTES: SATELLITE DATA IS BEING USED TO AUGMENT CLOUD COVER ABOVE
       12000 FEET.
       "FAIR" INDICATES FEW OR NO CLOUDS BELOW 12,000 FEET WITH NO
       SIGNIFICANT WEATHER AND/OR OBSTRUCTIONS TO VISIBILITY.

  * THESE STATIONS DO NOT REPORT WEATHER SUCH AS RAIN...SNOW OR FOG.

NEZ001>004-019>022-054>056-201700-
NEBRASKA PANHANDLE

CITY           SKY/WX    TMP DP  RH WIND       PRES   REMARKS
SCOTTSBLUFF    CLOUDY    22  18  85 CALM      29.99R
ALLIANCE       CLOUDY    19  15  84 W7        29.96R WCI  10
CHADRON        CLOUDY    33  25  72 SW8       29.95R WCI  26
SIDNEY         CLOUDY    33  22  63 W12       30.00R WCI  24
$$

NEZ057>060-069>072-079>082-201700-
SOUTHWEST NEBRASKA

CITY           SKY/WX    TMP DP  RH WIND       PRES   REMARKS
NORTH PLATTE   SUNNY     25  21  85 W8        30.02R FOG     WCI  16
IMPERIAL       MOSUNNY   27  19  72 W5        30.02R WCI  22
MCCOOK         SUNNY     28  24  85 SW5       30.04S WCI  23
$$

NEZ005>010-023>029-035>040-094-201700-
NORTH CENTRAL NEBRASKA

CITY           SKY/WX    TMP DP  RH WIND       PRES   REMARKS
VALENTINE      MOSUNNY   20  18  92 SW5       29.96R WCI  13
BROKEN BOW     SUNNY     28  23  81 CALM      30.01R
$$

NEZ041-046>049-061>064-073>077-083>087-201700-
SOUTH CENTRAL NEBRASKA

CITY           SKY/WX    TMP DP  RH WIND       PRES   REMARKS
GRAND ISLAND   FOG       28  28 100 S5        30.08S VSB<1/4 WCI  23
HASTINGS       HAZE      30  24  78 CALM      30.06S VSB 1/2
KEARNEY *      SUNNY     23  21  93 CALM      30.05S
$$

NEZ011>018-030>034-042>045-201700-
NORTHEAST NEBRASKA

CITY           SKY/WX    TMP DP  RH WIND       PRES   REMARKS
NORFOLK        CLOUDY    32  30  92 S7        30.07S FOG     WCI  26
COLUMBUS *     CLOUDY    32  27  80 S6        30.11R WCI  26
TEKAMAH        CLOUDY    33  32  96 SE6       30.13R FOG     WCI  28
$$

NEZ050>053-065>068-078-088>093-201700-
SOUTHEAST NEBRASKA

CITY           SKY/WX    TMP DP  RH WIND       PRES   REMARKS
LINCOLN        CLOUDY    32  31  96 SW3       30.13R FOG
OMAHA EPPLEY   CLOUDY    33  32  96 S7        30.14R FOG     WCI  27
FALLS CITY     CLOUDY    33  29  85 S7        30.14R WCI  27
$$

NEZ044-045-051>053-067-201700-
OMAHA AREA

CITY           SKY/WX    TMP DP  RH WIND       PRES   REMARKS
OMAHA EPPLEY   CLOUDY    33  32  96 S7        30.14R FOG     WCI  27
OFFUTT AFB     CLOUDY    33  32  96 SE5       30.12S FOG     WCI  28
$$



USA.gov is the U.S. government's official web portal to all federal, state and local government web resources and services.